User: anonymous   Login
Location: La Fredeussais
(48.1780°N, 1.3980°W)
Time: 18:15:45
(UTC+00:00)
Language:

Cosmos 1666 Rocket - Orbit

View from above orbital plane
View from above orbital plane
View from above satellite
View from above satellite

Ground track
Ground track

The orbit data is extracted from the following two-line orbital elements,

1 15890U 85058B   21210.72678727  .00000090  00000-0  80768-5 0  9994
2 15890  82.5274 293.5029 0019546 305.7162 168.0992 14.83483517926648
Epoch (UTC): 29 July 2021 17:26:34
Eccentricity: 0.0019546
inclination: 82.5274°
perigee height: 604 km
apogee height: 632 km
right ascension of ascending node: 293.5029°
argument of perigee: 305.7162°
revolutions per day: 14.83483517
mean anomaly at epoch: 168.0992°
orbit number at epoch: 92664

The dashed part of the orbit path shows where the satellite is in the earth's shadow,  

DLR